sat.trackr.live / text

‹ back to catalog

ANSER LEADER-S

NORAD 62644 · 2025-009AM

PAYLOAD ACTIVE UNKNOWN

§ Identity

Operator
Country
SPN
Launch date
2025-01-14
Launch site
AFWTR
Launch vehicle
Mass (kg)
RCS (m²)

External: N2YO · Heavens-Above · Gunter

§ Orbital elements

Epoch: 2026-09-22T17:46:30.529632Z

Period
92.40 min
Inclination
97.3975°
Eccentricity
0.0000738
Mean motion
15.58382804 rev/d
Perigee alt
391.8 km
Apogee alt
392.8 km
Semi-major
6,770.5 km
B*
1.3942e-3
RAAN
355.3747°
Arg perigee
103.3821°
Mean anomaly
256.7517°
Rev number
9,434

§ Raw data

ANSER LEADER-S1 62644U 25009AM  26265.74063113  .00107069  00000+0  13942-2 0  99972 62644  97.3975 355.3747 0000738 103.3821 256.7517 15.58382804 94341

JSON: /api/v1/satellites/62644 · /tle

For live sub-satellite position, see the globe view (requires WebGL).

§ Visibility from observer

Set your observer location to see the next 7 days of passes ≥ 10°. The values pass through the URL so the page stays shareable.

No JS? Fill the form by hand. The geolocation button needs JavaScript.